sat.trackr.live / text

‹ back to catalog

EWS-G2 (GOES 15)

NORAD 36411 · 2010-008A

PAYLOAD ACTIVE UNKNOWN

§ Identity

Operator
Country
US
Launch date
2010-03-04
Launch site
AFETR
Launch vehicle
Mass (kg)
RCS (m²)
6.31

Purposes: comms, earth_obs

External: N2YO · Heavens-Above · Gunter

§ Orbital elements

Epoch: 2026-05-25T04:02:38.036256Z

Period
1,436.05 min
Inclination
1.2175°
Eccentricity
0.0005001
Mean motion
1.00274787 rev/d
Perigee alt
35,764.7 km
Apogee alt
35,806.8 km
Semi-major
42,163.9 km
B*
0.0000e+0
RAAN
83.2466°
Arg perigee
32.1296°
Mean anomaly
251.4627°
Rev number
5,940

§ Raw data

EWS-G2 (GOES 15)1 36411U 10008A   26145.16849579  .00000019  00000+0  00000+0 0  99992 36411   1.2175  83.2466 0005001  32.1296 251.4627  1.00274787 59402

JSON: /api/v1/satellites/36411 · /tle

For live sub-satellite position, see the globe view (requires WebGL).

§ Visibility from observer

Set your observer location to see the next 7 days of passes ≥ 10°. The values pass through the URL so the page stays shareable.

No JS? Fill the form by hand. The geolocation button needs JavaScript.